Time,TemperatureF,DewpointF,PressureIn,WindDirection,WindDirectionDegrees,WindSpeedMPH,WindSpeedGustMPH,Humidity,HourlyPrecipIn,Conditions,Clouds,dailyrainin,SolarRadiationWatts/m^2,SoftwareType,DateUTC
2013-11-29 00:00:00,24.0,19.0,-100.00,NW,315,7.0,-999.0,82,-99.99,,,-99.99,0.000000,,2013-11-29 06:00:00,
2013-11-29 00:42:00,24.0,19.0,-100.00,NW,315,7.0,-999.0,82,-99.99,,,-99.99,0.000000,,2013-11-29 06:42:00,
2013-11-29 00:52:00,24.0,19.0,-100.00,NW,315,7.0,-999.0,82,-99.99,,,-99.99,0.000000,,2013-11-29 06:52:00,
2013-11-29 03:00:00,23.0,18.0,-100.00,NNW,337,6.0,-999.0,80,-99.99,,,-99.99,0.000000,,2013-11-29 09:00:00,
2013-11-29 03:43:00,23.0,18.0,-100.00,NNW,337,6.0,-999.0,80,-99.99,,,-99.99,0.000000,,2013-11-29 09:43:00,
2013-11-29 03:53:00,23.0,18.0,-100.00,NNW,337,6.0,-999.0,80,-99.99,,,-99.99,0.000000,,2013-11-29 09:53:00,
2013-11-29 06:00:00,17.0,14.0,-100.00,NNW,337,1.0,-999.0,86,-99.99,,,-99.99,0.000000,,2013-11-29 12:00:00,
2013-11-29 06:42:00,17.0,14.0,-100.00,NNW,337,1.0,-999.0,86,-99.99,,,-99.99,0.000000,,2013-11-29 12:42:00,
2013-11-29 06:52:00,17.0,14.0,-100.00,NNW,337,1.0,-999.0,86,-99.99,,,-99.99,0.000000,,2013-11-29 12:52:00,
2013-11-29 09:00:00,22.0,20.0,-100.00,NW,315,2.0,-999.0,91,-99.99,,,-99.99,164.720001,,2013-11-29 15:00:00,
2013-11-29 09:43:00,22.0,20.0,-100.00,NW,315,2.0,-999.0,91,-99.99,,,-99.99,164.720001,,2013-11-29 15:43:00,
2013-11-29 09:53:00,22.0,20.0,-100.00,NW,315,2.0,-999.0,91,-99.99,,,-99.99,164.720001,,2013-11-29 15:53:00,
2013-11-29 12:00:00,26.0,19.0,-100.00,WSW,247,3.0,-999.0,74,-99.99,,,-99.99,225.039993,,2013-11-29 18:00:00,
2013-11-29 12:42:00,26.0,19.0,-100.00,WSW,247,3.0,-999.0,74,-99.99,,,-99.99,225.039993,,2013-11-29 18:42:00,
2013-11-29 12:52:00,26.0,19.0,-100.00,WSW,247,3.0,-999.0,74,-99.99,,,-99.99,225.039993,,2013-11-29 18:52:00,
2013-11-29 15:00:00,27.0,16.0,-100.00,West,270,2.0,-999.0,61,-99.99,,,-99.99,156.600006,,2013-11-29 21:00:00,
2013-11-29 15:43:00,27.0,16.0,-100.00,West,270,2.0,-999.0,61,-99.99,,,-99.99,156.600006,,2013-11-29 21:43:00,
2013-11-29 15:53:00,27.0,16.0,-100.00,West,270,2.0,-999.0,61,-99.99,,,-99.99,156.600006,,2013-11-29 21:53:00,
2013-11-29 18:00:00,27.0,17.0,-100.00,South,180,4.0,-999.0,65,-99.99,,,-99.99,0.000000,,2013-11-30 00:00:00,
2013-11-29 18:42:00,27.0,17.0,-100.00,South,180,4.0,-999.0,65,-99.99,,,-99.99,0.000000,,2013-11-30 00:42:00,
2013-11-29 18:52:00,27.0,17.0,-100.00,South,180,4.0,-999.0,65,-99.99,,,-99.99,0.000000,,2013-11-30 00:52:00,
2013-11-29 21:00:00,27.0,21.0,-100.00,SSW,202,5.0,-999.0,75,-99.99,,,-99.99,0.000000,,2013-11-30 03:00:00,
2013-11-29 21:43:00,27.0,21.0,-100.00,SSW,202,5.0,-999.0,75,-99.99,,,-99.99,0.000000,,2013-11-30 03:43:00,
2013-11-29 21:54:00,27.0,21.0,-100.00,SSW,202,5.0,-999.0,75,-99.99,,,-99.99,0.000000,,2013-11-30 03:54:00,